This is the latest recevied weather packets stored in our database for station/object DO7CRZ-11. If no packets are shown the sender has not sent any weather packets the latest 10 day(s).
| Time | Temp. | Humidity | Pressure | Rain* | Wind** | Luminosity | Snow |
|---|---|---|---|---|---|---|---|
| 1777565532 | 16.11° C | 38% | 1029 hPa | 0 mm | - | 167 W/m² | - |
| 1777564935 | 16.67° C | 37% | 1029.1 hPa | 0 mm | - | 132 W/m² | - |
| 1777564328 | 16.67° C | 36% | 1029.1 hPa | 0 mm | - | 220 W/m² | - |
| 1777563731 | 16.67° C | 36% | 1029.1 hPa | 0 mm | - | 250 W/m² | - |
| 1777563136 | 17.22° C | 36% | 1029.2 hPa | 0 mm | - | 255 W/m² | - |
| 1777562527 | 17.22° C | 36% | 1029.2 hPa | 0 mm | - | 284 W/m² | - |
| 1777561931 | 17.22° C | 35% | 1029.3 hPa | 0 mm | - | 309 W/m² | - |
| 1777561334 | 17.22° C | 36% | 1029.5 hPa | 0 mm | - | 411 W/m² | - |
| 1777560727 | 17.22° C | 35% | 1029.4 hPa | 0 mm | - | 398 W/m² | - |
| 1777560130 | 17.22° C | 36% | 1029.5 hPa | 0 mm | - | 482 W/m² | - |
| 1777559534 | 16.67° C | 36% | 1029.6 hPa | 0 mm | - | 473 W/m² | - |
| 1777558927 | 16.67° C | 36% | 1029.6 hPa | 0 mm | - | 359 W/m² | - |
| 1777558330 | 16.67° C | 35% | 1029.8 hPa | 0 mm | - | 191 W/m² | - |
| 1777557128 | 16.67° C | 37% | 1029.8 hPa | 0 mm | - | 571 W/m² | - |
| 1777556527 | 16.11° C | 37% | 1029.9 hPa | 0 mm | - | 578 W/m² | - |
| 1777555929 | 16.11° C | 36% | 1029.9 hPa | 0 mm | - | 151 W/m² | - |
| 1777555332 | 16.67° C | 36% | 1029.9 hPa | 0 mm | - | 698 W/m² | - |
| 1777554735 | 16.67° C | 35% | 1029.9 hPa | 0 mm | - | 665 W/m² | - |
| 1777554127 | 16.11° C | 37% | 1030.1 hPa | 0 mm | - | 601 W/m² | - |
| 1777553530 | 16.11° C | 36% | 1030.3 hPa | 0 mm | - | 389 W/m² | - |
| 1777552933 | 15.56° C | 36% | 1030.3 hPa | 0 mm | - | 688 W/m² | - |
| 1777552336 | 15° C | 37% | 1030.4 hPa | 0 mm | - | 679 W/m² | - |
| 1777551728 | 15° C | 35% | 1030.4 hPa | 0 mm | - | 556 W/m² | - |
| 1777551131 | 15° C | 35% | 1030.7 hPa | 0 mm | - | 719 W/m² | - |
| 1777550543 | 15.56° C | 34% | 1030.6 hPa | 0 mm | - | 233 W/m² | - |
* Rain latest hour (hover to see other rain measurements)
** Current wind speed in m/s (hover to see current wind gust speed)